Location: Bourg-d�Oueil
(42.8588°N, 0.4991°E)
Time: 13:10:54
(UTC+00:00)

Envisat - Visible Passes

Search period start: 02 December 2022 00:00
Search period end: 12 December 2022 00:00
Orbit: 763 x 765 km, 98.2° (Epoch: 01 December)

Date Brightness Start Highest point End Pass type
(mag) Time Alt. Az. Time Alt. Az. Time Alt. Az.
02 Dec 4.9 04:59:58 10° N 05:01:00 16° N 05:01:00 16° N visible
03 Dec 5.2 04:22:42 10° NNE 04:23:24 14° N 04:23:24 14° N visible
04 Dec 5.1 05:25:30 10° NNW 05:25:58 12° NNW 05:25:58 12° NNW visible
05 Dec 5.2 04:47:53 10° N 04:48:23 13° N 04:48:23 13° N visible
06 Dec 5.6 04:10:45 10° NNE 04:10:48 10° NNE 04:10:48 10° NNE visible
07 Dec 5.2 05:13:17 10° N 05:13:23 10° N 05:13:23 10° N visible
09 Dec 6.2 16:57:19 10° WSW 16:58:41 11° W 17:00:02 10° WNW visible
